| time (UTC) | temp F | wind direction | speed MPH | gust MPH | rain 1hr in | rain 24hr in | rain mn in | humidity % | barometer mb |
| 20260507010020 | 63 | 84 | 4.0 | 8.0 | 0.00 | 0.00 | 0.04 | 52 | 1011.8 |
| 20260507005020 | 63 | 346 | 4.0 | 5.0 | 0.00 | 0.00 | 0.04 | 53 | 1011.8 |
| 20260507004522 | 63 | 112 | 3.0 | 4.0 | 0.00 | 0.00 | 0.04 | 52 | 1011.8 |
| 20260507004016 | 63 | 332 | 3.0 | 5.0 | 0.00 | 0.00 | 0.04 | 51 | 1011.8 |
| 20260507003518 | 63 | 319 | 0.0 | 5.0 | 0.00 | 0.00 | 0.04 | 50 | 1011.8 |
| 20260507002518 | 63 | 312 | 0.0 | 4.0 | 0.00 | 0.00 | 0.04 | 49 | 1011.8 |
| 20260507002020 | 64 | 317 | 0.0 | 5.0 | 0.00 | 0.00 | 0.04 | 48 | 1011.8 |
| 20260507001523 | 63 | 316 | 3.0 | 4.0 | 0.00 | 0.00 | 0.04 | 48 | 1011.8 |
| 20260507001016 | 64 | 322 | 0.0 | 5.0 | 0.00 | 0.00 | 0.04 | 48 | 1011.8 |
| 20260507000421 | 64 | 318 | 0.0 | 4.0 | 0.00 | 0.00 | 0.04 | 48 | 1011.8 |
| 20260506235924 | 63 | 76 | 3.0 | 6.0 | 0.00 | 0.00 | 0.04 | 47 | 1011.8 |
| 20260506234919 | 63 | 67 | 4.0 | 7.0 | 0.00 | 0.00 | 0.04 | 48 | 1011.8 |
| 20260506234421 | 64 | 229 | 0.0 | 7.0 | 0.00 | 0.00 | 0.04 | 49 | 1011.8 |
| 20260506233919 | 63 | 83 | 0.0 | 7.0 | 0.00 | 0.00 | 0.04 | 49 | 1011.8 |
| 20260506233421 | 63 | 25 | 3.0 | 6.0 | 0.00 | 0.00 | 0.04 | 51 | 1010.8 |
| 20260506230919 | 62 | 241 | 0.0 | 6.0 | 0.00 | 0.00 | 0.04 | 51 | 1010.8 |
| 20260506230421 | 62 | 148 | 4.0 | 6.0 | 0.00 | 0.00 | 0.04 | 51 | 1010.8 |
| 20260506225922 | 62 | 304 | 4.0 | 7.0 | 0.00 | 0.00 | 0.04 | 52 | 1010.8 |
| 20260506225419 | 62 | 293 | 4.0 | 7.0 | 0.00 | 0.00 | 0.04 | 52 | 1010.8 |
| 20260506224920 | 62 | 220 | 5.0 | 7.0 | 0.00 | 0.00 | 0.04 | 54 | 1010.8 |
| 20260506224422 | 62 | 319 | 3.0 | 5.0 | 0.00 | 0.00 | 0.04 | 55 | 1010.8 |
| 20260506223920 | 62 | 26 | 5.0 | 7.0 | 0.00 | 0.00 | 0.04 | 56 | 1010.8 |
| 20260506223417 | 62 | 49 | 5.0 | 7.0 | 0.00 | 0.00 | 0.04 | 58 | 1011.8 |
| 20260506221919 | 61 | 11 | 4.0 | 5.0 | 0.00 | 0.00 | 0.04 | 55 | 1010.8 |
| 20260506221422 | 61 | 69 | 0.0 | 7.0 | 0.00 | 0.00 | 0.04 | 56 | 1010.8 |
| 20260506220920 | 61 | 21 | 0.0 | 7.0 | 0.00 | 0.00 | 0.04 | 55 | 1010.8 |
| 20260506220421 | 61 | 40 | 3.0 | 10.0 | 0.00 | 0.00 | 0.04 | 51 | 1010.8 |
| 20260506215422 | 61 | 346 | 7.0 | 14.0 | 0.00 | 0.00 | 0.04 | 45 | 1010.8 |
| 20260506214924 | 62 | 24 | 7.0 | 10.0 | 0.00 | 0.00 | 0.04 | 40 | 1010.8 |
| 20260506214426 | 62 | 12 | 7.0 | 10.0 | 0.00 | 0.00 | 0.04 | 38 | 1010.8 |
| 20260506213922 | 62 | 14 | 7.0 | 11.0 | 0.00 | 0.00 | 0.04 | 39 | 1010.8 |
| 20260506213419 | 62 | 22 | 7.0 | 12.0 | 0.00 | 0.00 | 0.04 | 39 | 1011.8 |
| 20260506212920 | 62 | 11 | 6.0 | 9.0 | 0.00 | 0.00 | 0.04 | 39 | 1011.8 |
| 20260506211918 | 62 | 319 | 5.0 | 10.0 | 0.00 | 0.00 | 0.04 | 40 | 1010.8 |
| 20260506211420 | 62 | 27 | 7.0 | 11.0 | 0.00 | 0.00 | 0.04 | 39 | 1010.8 |
| 20260506210917 | 62 | 42 | 7.0 | 10.0 | 0.00 | 0.00 | 0.04 | 39 | 1010.8 |
| 20260506205920 | 62 | 351 | 3.0 | 6.0 | 0.00 | 0.00 | 0.04 | 39 | 1010.8 |
| 20260506205416 | 61 | 356 | 6.0 | 11.0 | 0.00 | 0.00 | 0.04 | 40 | 1010.8 |
| 20260506204913 | 61 | 13 | 5.0 | 9.0 | 0.00 | 0.00 | 0.04 | 40 | 1011.8 |
| 20260506203914 | 61 | 170 | 5.0 | 10.0 | 0.00 | 0.00 | 0.04 | 40 | 1011.8 |
| 20260506203411 | 61 | 301 | 4.0 | 11.0 | 0.00 | 0.00 | 0.04 | 41 | 1011.8 |
| 20260506202912 | 60 | 345 | 7.0 | 10.0 | 0.00 | 0.00 | 0.04 | 40 | 1011.8 |
| 20260506202411 | 60 | 3 | 8.0 | 11.0 | 0.00 | 0.00 | 0.04 | 41 | 1011.8 |
| 20260506201913 | 60 | 6 | 5.0 | 10.0 | 0.00 | 0.00 | 0.04 | 41 | 1011.8 |
| 20260506201415 | 60 | 334 | 5.0 | 10.0 | 0.00 | 0.00 | 0.04 | 43 | 1011.8 |
| 20260506200913 | 60 | 15 | 3.0 | 9.0 | 0.00 | 0.00 | 0.04 | 42 | 1011.8 |
| 20260506200410 | 60 | 333 | 4.0 | 8.0 | 0.00 | 0.00 | 0.04 | 43 | 1011.8 |
| 20260506195907 | 60 | 347 | 5.0 | 8.0 | 0.00 | 0.00 | 0.04 | 45 | 1011.8 |
| 20260506195406 | 59 | 17 | 5.0 | 9.0 | 0.00 | 0.00 | 0.04 | 44 | 1011.8 |
| 20260506194858 | 59 | 322 | 4.0 | 9.0 | 0.00 | 0.00 | 0.04 | 44 | 1012.8 |
| 20260506194359 | 59 | 26 | 6.0 | 7.0 | 0.00 | 0.00 | 0.04 | 46 | 1012.8 |
| 20260506193858 | 58 | 292 | 5.0 | 7.0 | 0.00 | 0.00 | 0.04 | 47 | 1012.8 |
| 20260506193400 | 57 | 29 | 7.0 | 10.0 | 0.00 | 0.00 | 0.04 | 47 | 1012.8 |
| 20260506192902 | 58 | 356 | 5.0 | 7.0 | 0.00 | 0.00 | 0.04 | 47 | 1012.8 |
| 20260506192355 | 58 | 312 | 4.0 | 9.0 | 0.00 | 0.00 | 0.04 | 48 | 1012.8 |
| 20260506190853 | 58 | 20 | 5.0 | 8.0 | 0.00 | 0.00 | 0.04 | 50 | 1012.8 |
| 20260506190355 | 57 | 31 | 6.0 | 7.0 | 0.00 | 0.00 | 0.04 | 50 | 1012.8 |
| 20260506185351 | 57 | 48 | 4.0 | 9.0 | 0.00 | 0.00 | 0.04 | 52 | 1012.8 |
| 20260506184355 | 57 | 37 | 3.0 | 7.0 | 0.00 | 0.00 | 0.04 | 53 | 1012.8 |
| 20260506183854 | 56 | 28 | 5.0 | 6.0 | 0.00 | 0.00 | 0.04 | 53 | 1012.8 |
| 20260506183351 | 56 | 309 | 3.0 | 6.0 | 0.00 | 0.00 | 0.04 | 54 | 1012.8 |
| 20260506182853 | 57 | 298 | 0.0 | 12.0 | 0.00 | 0.00 | 0.04 | 55 | 1012.8 |
| 20260506182351 | 56 | 25 | 4.0 | 11.0 | 0.00 | 0.00 | 0.04 | 55 | 1012.8 |
| 20260506181355 | 56 | 45 | 7.0 | 15.0 | 0.00 | 0.00 | 0.04 | 56 | 1011.8 |
| 20260506180854 | 56 | 83 | 8.0 | 15.0 | 0.00 | 0.00 | 0.04 | 57 | 1011.8 |
| 20260506175858 | 56 | 28 | 11.0 | 16.0 | 0.00 | 0.00 | 0.04 | 59 | 1011.8 |
| 20260506175356 | 56 | 55 | 9.0 | 12.0 | 0.00 | 0.00 | 0.04 | 60 | 1011.8 |
| 20260506174355 | 56 | 35 | 8.0 | 13.0 | 0.04 | 0.00 | 0.04 | 62 | 1011.8 |
| 20260506173854 | 56 | 8 | 10.0 | 11.0 | 0.04 | 0.00 | 0.04 | 63 | 1011.8 |
| 20260506173356 | 56 | 32 | 7.0 | 13.0 | 0.04 | 0.00 | 0.04 | 64 | 1012.8 |
| 20260506172352 | 55 | 34 | 5.0 | 11.0 | 0.04 | 0.00 | 0.04 | 65 | 1012.8 |
| 20260506171849 | 55 | 31 | 5.0 | 14.0 | 0.04 | 0.00 | 0.04 | 66 | 1011.8 |
| 20260506171351 | 55 | 4 | 9.0 | 15.0 | 0.04 | 0.00 | 0.04 | 66 | 1011.8 |
| 20260506170849 | 55 | 34 | 10.0 | 12.0 | 0.04 | 0.00 | 0.04 | 67 | 1011.8 |
| 20260506170351 | 55 | 20 | 7.0 | 11.0 | 0.04 | 0.00 | 0.04 | 70 | 1011.8 |
| 20260506165853 | 56 | 48 | 6.0 | 11.0 | 0.04 | 0.00 | 0.04 | 71 | 1011.8 |
| 20260506165353 | 56 | 229 | 6.0 | 11.0 | 0.04 | 0.00 | 0.04 | 72 | 1011.8 |
| 20260506164854 | 56 | 2 | 7.0 | 12.0 | 0.04 | 0.00 | 0.04 | 72 | 1011.8 |
| 20260506164355 | 56 | 9 | 7.0 | 10.0 | 0.00 | 0.00 | 0.04 | 72 | 1011.8 |
| 20260506163855 | 56 | 49 | 7.0 | 14.0 | 0.00 | 0.00 | 0.04 | 71 | 1011.8 |
| 20260506163356 | 56 | 26 | 10.0 | 12.0 | 0.00 | 0.00 | 0.04 | 71 | 1012.8 |
| 20260506162858 | 56 | 29 | 7.0 | 12.0 | 0.00 | 0.00 | 0.04 | 72 | 1012.8 |
| 20260506162356 | 56 | 39 | 9.0 | 10.0 | 0.00 | 0.00 | 0.04 | 71 | 1012.8 |
| 20260506161853 | 56 | 315 | 5.0 | 11.0 | 0.00 | 0.00 | 0.04 | 73 | 1012.8 |
| 20260506161355 | 55 | 2 | 6.0 | 12.0 | 0.00 | 0.00 | 0.04 | 73 | 1012.8 |
| 20260506160854 | 56 | 293 | 7.0 | 14.0 | 0.00 | 0.00 | 0.04 | 74 | 1012.8 |
| 20260506160356 | 56 | 5 | 8.0 | 12.0 | 0.00 | 0.00 | 0.04 | 74 | 1011.8 |
| 20260506155858 | 56 | 35 | 7.0 | 12.0 | 0.00 | 0.00 | 0.04 | 76 | 1011.8 |
| 20260506155356 | 56 | 32 | 7.0 | 10.0 | 0.00 | 0.00 | 0.04 | 77 | 1011.8 |
| 20260506154858 | 56 | 58 | 5.0 | 10.0 | 0.00 | 0.00 | 0.00 | 79 | 1011.8 |
| 20260506154400 | 57 | 37 | 7.0 | 11.0 | 0.00 | 0.00 | 0.00 | 80 | 1011.8 |
| 20260506153859 | 57 | 333 | 6.0 | 12.0 | 0.00 | 0.00 | 0.00 | 80 | 1011.8 |
| 20260506153401 | 57 | 356 | 11.0 | 14.0 | 0.00 | 0.00 | 0.00 | 80 | 1011.8 |
| 20260506152902 | 57 | 18 | 7.0 | 12.0 | 0.00 | 0.00 | 0.00 | 80 | 1011.8 |
| 20260506152401 | 56 | 10 | 10.0 | 14.0 | 0.00 | 0.00 | 0.00 | 80 | 1011.8 |
| 20260506151858 | 56 | 21 | 7.0 | 9.0 | 0.00 | 0.00 | 0.00 | 79 | 1012.8 |
| 20260506151356 | 56 | 351 | 7.0 | 9.0 | 0.00 | 0.00 | 0.00 | 78 | 1012.8 |
| 20260506150855 | 55 | 271 | 6.0 | 6.0 | 0.00 | 0.00 | 0.00 | 76 | 1012.8 |
| 20260506150356 | 55 | 289 | 3.0 | 6.0 | 0.00 | 0.00 | 0.00 | 75 | 1011.8 |
| 20260506145834 | 55 | 289 | 6.0 | 12.0 | 0.00 | 0.00 | 0.00 | 73 | 1011.8 |
| 20260506145333 | 54 | 32 | 9.0 | 6.0 | 0.00 | 0.00 | 0.00 | 71 | 1011.8 |
| 20260506144834 | 54 | 290 | 3.0 | 5.0 | 0.00 | 0.00 | 0.00 | 67 | 1013.8 |
| 20260506144336 | 54 | 346 | 3.0 | 7.0 | 0.00 | 0.00 | 0.00 | 67 | 1013.8 |
| 20260506143835 | 54 | 299 | 0.0 | 7.0 | 0.00 | 0.00 | 0.00 | 66 | 1013.8 |
| 20260506143337 | 54 | 315 | 4.0 | 11.0 | 0.00 | 0.00 | 0.00 | 66 | 1013.8 |
| 20260506142839 | 54 | 7 | 7.0 | 9.0 | 0.00 | 0.00 | 0.00 | 66 | 1013.8 |
| 20260506142337 | 54 | 0 | 4.0 | 13.0 | 0.00 | 0.00 | 0.00 | 67 | 1013.8 |
| 20260506141839 | 53 | 22 | 12.0 | 16.0 | 0.00 | 0.00 | 0.00 | 66 | 1011.8 |
| 20260506141341 | 53 | 31 | 12.0 | 16.0 | 0.00 | 0.00 | 0.00 | 65 | 1011.8 |
| 20260506140840 | 54 | 16 | 9.0 | 15.0 | 0.00 | 0.00 | 0.00 | 63 | 1011.8 |
| 20260506140342 | 54 | 7 | 10.0 | 15.0 | 0.00 | 0.00 | 0.00 | 62 | 1012.8 |
| 20260506135844 | 54 | 64 | 8.0 | 14.0 | 0.00 | 0.00 | 0.00 | 61 | 1012.8 |
| 20260506135342 | 54 | 320 | 8.0 | 11.0 | 0.00 | 0.00 | 0.00 | 62 | 1012.8 |
| 20260506134346 | 53 | 34 | 10.0 | 14.0 | 0.00 | 0.00 | 0.00 | 62 | 1011.8 |
| 20260506133840 | 54 | 35 | 10.0 | 17.0 | 0.00 | 0.00 | 0.00 | 61 | 1011.8 |
| 20260506133342 | 53 | 29 | 10.0 | 14.0 | 0.00 | 0.00 | 0.00 | 61 | 1011.8 |
| 20260506132844 | 54 | 2 | 7.0 | 17.0 | 0.00 | 0.00 | 0.00 | 61 | 1011.8 |
| 20260506132343 | 53 | 39 | 12.0 | 12.0 | 0.00 | 0.00 | 0.00 | 60 | 1011.8 |
| 20260506131844 | 54 | 10 | 7.0 | 14.0 | 0.00 | 0.00 | 0.00 | 59 | 1011.8 |
| 20260506131342 | 54 | 10 | 12.0 | 17.0 | 0.00 | 0.00 | 0.00 | 59 | 1011.8 |
| 20260506130840 | 54 | 21 | 10.0 | 12.0 | 0.00 | 0.00 | 0.00 | 58 | 1011.8 |
| 20260506130342 | 54 | 8 | 7.0 | 14.0 | 0.00 | 0.00 | 0.00 | 57 | 1010.8 |
| 20260506125844 | 54 | 21 | 11.0 | 15.0 | 0.00 | 0.00 | 0.00 | 57 | 1010.8 |
| 20260506125338 | 54 | 23 | 11.0 | 15.0 | 0.00 | 0.00 | 0.00 | 54 | 1010.8 |
| 20260506124840 | 55 | 25 | 7.0 | 15.0 | 0.00 | 0.00 | 0.00 | 51 | 1010.8 |
| 20260506124342 | 55 | 5 | 11.0 | 14.0 | 0.00 | 0.00 | 0.00 | 50 | 1010.8 |
| 20260506123343 | 55 | 30 | 12.0 | 15.0 | 0.00 | 0.00 | 0.00 | 49 | 1010.8 |
| 20260506122844 | 55 | 287 | 9.0 | 14.0 | 0.00 | 0.00 | 0.00 | 48 | 1010.8 |
| 20260506121827 | 55 | 19 | 10.0 | 16.0 | 0.00 | 0.00 | 0.00 | 47 | 1009.8 |
| 20260506121328 | 55 | 37 | 9.0 | 15.0 | 0.00 | 0.00 | 0.00 | 47 | 1009.8 |
| 20260506120827 | 56 | 10 | 7.0 | 16.0 | 0.00 | 0.00 | 0.00 | 47 | 1009.8 |
| 20260506120329 | 55 | 47 | 12.0 | 16.0 | 0.00 | 0.00 | 0.00 | 47 | 1010.8 |
| 20260506115832 | 56 | 22 | 11.0 | 14.0 | 0.00 | 0.00 | 0.00 | 47 | 1010.8 |
| 20260506115324 | 56 | 44 | 11.0 | 10.0 | 0.00 | 0.00 | 0.00 | 47 | 1010.8 |
| 20260506114826 | 56 | 11 | 7.0 | 14.0 | 0.00 | 0.00 | 0.00 | 46 | 1009.8 |
| 20260506114328 | 56 | 32 | 10.0 | 11.0 | 0.00 | 0.00 | 0.00 | 46 | 1009.8 |
| 20260506113827 | 56 | 18 | 7.0 | 12.0 | 0.00 | 0.00 | 0.00 | 45 | 1009.8 |
| 20260506113329 | 56 | 13 | 7.0 | 14.0 | 0.00 | 0.00 | 0.00 | 45 | 1009.8 |
| 20260506112831 | 56 | 25 | 7.0 | 14.0 | 0.00 | 0.00 | 0.00 | 45 | 1009.8 |
| 20260506112329 | 56 | 25 | 10.0 | 13.0 | 0.00 | 0.00 | 0.00 | 45 | 1009.8 |
| 20260506111831 | 56 | 37 | 8.0 | 12.0 | 0.00 | 0.00 | 0.00 | 45 | 1009.8 |
| 20260506111334 | 57 | 57 | 9.0 | 13.0 | 0.00 | 0.00 | 0.00 | 46 | 1009.8 |
| 20260506110832 | 57 | 37 | 8.0 | 16.0 | 0.00 | 0.00 | 0.00 | 46 | 1009.8 |
| 20260506110333 | 57 | 17 | 9.0 | 13.0 | 0.00 | 0.00 | 0.00 | 47 | 1009.8 |
| 20260506105335 | 57 | 21 | 11.0 | 15.0 | 0.00 | 0.00 | 0.00 | 46 | 1009.8 |
| 20260506104836 | 57 | 17 | 9.0 | 15.0 | 0.00 | 0.00 | 0.00 | 46 | 1008.8 |
| 20260506103338 | 57 | 307 | 5.0 | 12.0 | 0.00 | 0.00 | 0.00 | 47 | 1008.8 |
| 20260506102841 | 58 | 339 | 10.0 | 13.0 | 0.00 | 0.00 | 0.00 | 47 | 1008.8 |
| 20260506102340 | 58 | 20 | 8.0 | 12.0 | 0.00 | 0.00 | 0.00 | 48 | 1008.8 |
| 20260506101841 | 58 | 23 | 10.0 | 12.0 | 0.00 | 0.00 | 0.00 | 48 | 1008.8 |
| 20260506100841 | 58 | 6 | 7.0 | 12.0 | 0.00 | 0.00 | 0.00 | 48 | 1008.8 |
| 20260506100339 | 58 | 324 | 5.0 | 12.0 | 0.00 | 0.00 | 0.00 | 48 | 1008.8 |
| 20260506095334 | 58 | 318 | 5.0 | 11.0 | 0.00 | 0.00 | 0.00 | 48 | 1008.8 |
| 20260506094836 | 58 | 356 | 7.0 | 11.0 | 0.00 | 0.00 | 0.00 | 48 | 1007.8 |
| 20260506093837 | 58 | 24 | 8.0 | 11.0 | 0.00 | 0.00 | 0.00 | 47 | 1007.8 |
| 20260506092339 | 58 | 26 | 9.0 | 12.0 | 0.00 | 0.00 | 0.00 | 48 | 1007.8 |
| 20260506091841 | 58 | 16 | 6.0 | 9.0 | 0.00 | 0.00 | 0.00 | 48 | 1007.8 |
| 20260506090842 | 59 | 7 | 8.0 | 12.0 | 0.00 | 0.00 | 0.00 | 48 | 1007.8 |
| 20260506090343 | 59 | 347 | 9.0 | 11.0 | 0.00 | 0.00 | 0.00 | 48 | 1007.8 |
| 20260506085846 | 59 | 30 | 7.0 | 10.0 | 0.00 | 0.00 | 0.00 | 48 | 1007.8 |
| 20260506085339 | 59 | 12 | 8.0 | 10.0 | 0.00 | 0.00 | 0.00 | 48 | 1007.8 |
| 20260506084841 | 59 | 20 | 6.0 | 11.0 | 0.00 | 0.00 | 0.00 | 48 | 1007.8 |
| 20260506083842 | 59 | 31 | 10.0 | 11.0 | 0.00 | 0.00 | 0.00 | 48 | 1007.8 |
| 20260506083343 | 60 | 2 | 7.0 | 10.0 | 0.00 | 0.00 | 0.00 | 48 | 1007.8 |
| 20260506082342 | 60 | 21 | 7.0 | 11.0 | 0.00 | 0.00 | 0.00 | 48 | 1007.8 |
| 20260506081845 | 60 | 9 | 7.0 | 11.0 | 0.00 | 0.00 | 0.00 | 47 | 1007.8 |
| 20260506080835 | 60 | 4 | 7.0 | 8.0 | 0.00 | 0.00 | 0.00 | 47 | 1007.8 |
| 20260506073333 | 61 | 26 | 6.0 | 9.0 | 0.00 | 0.00 | 0.00 | 50 | 1007.8 |
| 20260506072334 | 61 | 180 | 4.0 | 8.0 | 0.00 | 0.00 | 0.00 | 50 | 1007.8 |
| 20260506071338 | 61 | 19 | 7.0 | 9.0 | 0.00 | 0.00 | 0.00 | 50 | 1006.8 |
| 20260506070835 | 61 | 345 | 5.0 | 11.0 | 0.00 | 0.00 | 0.00 | 51 | 1006.8 |
| 20260506062328 | 61 | 34 | 8.0 | 10.0 | 0.00 | 0.00 | 0.00 | 51 | 1006.8 |
| 20260506061830 | 61 | 35 | 7.0 | 12.0 | 0.00 | 0.00 | 0.00 | 51 | 1007.8 |
| 20260506061331 | 61 | 154 | 7.0 | 13.0 | 0.00 | 0.00 | 0.00 | 51 | 1007.8 |
| 20260506060830 | 61 | 45 | 10.0 | 13.0 | 0.00 | 0.00 | 0.00 | 51 | 1007.8 |
| 20260506060333 | 62 | 5 | 7.0 | 13.0 | 0.00 | 0.00 | 0.00 | 51 | 1007.8 |
| 20260506051341 | 63 | 28 | 9.0 | 13.0 | 0.00 | 0.00 | 0.00 | 48 | 1007.8 |
| 20260506050342 | 64 | 36 | 9.0 | 12.0 | 0.00 | 0.00 | 0.00 | 47 | 1007.8 |
| 20260506044346 | 64 | 15 | 9.0 | 11.0 | 0.00 | 0.00 | 0.00 | 47 | 1006.8 |
| 20260506042844 | 65 | 24 | 10.0 | 15.0 | 0.00 | 0.00 | 0.00 | 47 | 1006.8 |
| 20260506042342 | 65 | 5 | 8.0 | 13.0 | 0.00 | 0.00 | 0.00 | 47 | 1006.8 |
| 20260506041845 | 65 | 81 | 8.0 | 17.0 | 0.00 | 0.00 | 0.00 | 46 | 1007.8 |
| 20260506041346 | 66 | 31 | 10.0 | 13.0 | 0.00 | 0.00 | 0.00 | 46 | 1007.8 |
| 20260506035848 | 67 | 335 | 9.0 | 11.0 | 0.00 | 0.00 | 0.00 | 44 | 1006.8 |
| 20260506035347 | 67 | 20 | 7.0 | 14.0 | 0.00 | 0.00 | 0.00 | 43 | 1006.8 |
| 20260506034850 | 67 | 343 | 7.0 | 14.0 | 0.00 | 0.00 | 0.00 | 43 | 1006.8 |
| 20260506034351 | 67 | 16 | 7.0 | 12.0 | 0.00 | 0.00 | 0.00 | 43 | 1006.8 |
| 20260506033845 | 67 | 34 | 7.0 | 15.0 | 0.00 | 0.00 | 0.00 | 42 | 1006.8 |
| 20260506033343 | 67 | 17 | 8.0 | 14.0 | 0.00 | 0.00 | 0.00 | 42 | 1006.8 |
| 20260506032844 | 67 | 31 | 9.0 | 14.0 | 0.00 | 0.00 | 0.00 | 41 | 1006.8 |
| 20260506031845 | 68 | 334 | 9.0 | 14.0 | 0.00 | 0.00 | 0.00 | 40 | 1005.8 |
| 20260506030845 | 68 | 38 | 9.0 | 15.0 | 0.00 | 0.00 | 0.00 | 40 | 1005.8 |
| 20260506030347 | 68 | 4 | 10.0 | 14.0 | 0.00 | 0.00 | 0.00 | 39 | 1005.8 |
| 20260506025850 | 68 | 21 | 8.0 | 12.0 | 0.00 | 0.00 | 0.00 | 38 | 1005.8 |
| 20260506024845 | 69 | 25 | 10.0 | 15.0 | 0.00 | 0.00 | 0.00 | 37 | 1005.8 |
| 20260506024346 | 69 | 10 | 12.0 | 13.0 | 0.00 | 0.00 | 0.00 | 37 | 1005.8 |
| 20260506023845 | 69 | 28 | 10.0 | 15.0 | 0.00 | 0.00 | 0.00 | 36 | 1005.8 |
| 20260506022845 | 69 | 17 | 11.0 | 14.0 | 0.00 | 0.00 | 0.00 | 36 | 1005.8 |
| 20260506022342 | 70 | 14 | 7.0 | 15.0 | 0.00 | 0.00 | 0.00 | 37 | 1005.8 |
| 20260506020343 | 71 | 18 | 7.0 | 14.0 | 0.00 | 0.00 | 0.00 | 36 | 1004.8 |
| 20260506015343 | 71 | 314 | 11.0 | 15.0 | 0.00 | 0.00 | 0.00 | 36 | 1004.8 |
| 20260506014845 | 72 | 53 | 7.0 | 15.0 | 0.00 | 0.00 | 0.00 | 35 | 1003.8 |
| 20260506014346 | 72 | 356 | 11.0 | 13.0 | 0.00 | 0.00 | 0.00 | 35 | 1003.8 |
| 20260506012848 | 73 | 48 | 10.0 | 12.0 | 0.00 | 0.00 | 0.00 | 33 | 1003.8 |
| 20260506011346 | 74 | 33 | 10.0 | 13.0 | 0.00 | 0.00 | 0.00 | 33 | 1003.8 |